Regional Weather Roundup
Issued by NWS Sterling, VA

Home | Current Version | Previous Version | Graphics & Text | Print | Product List | Glossary On
Versions: 1 2 3 4 5 6 7 8 9 10 11 12 13 14 15 16 17 18 19 20 21 22 23 24 25 26 27 28 29 30 31 32 33 34 35 36 37 38 39 40 41 42 43 44 45 46 47 48 49 50
000
ASUS41 KLWX 250311
RWRLWX

REGIONAL WEATHER ROUNDUP
NATIONAL WEATHER SERVICE BALTIMORE MD/WASHINGTON DC
1100 PM EDT WED MAY 24 2017

Note: "FAIR" indicates few or no clouds below 12,000 feet
with no significant weather and/or obstructions to visibility.
 TC=TEMPERATURE CELSIUS

 * =Non NWS site. Station does not report precipitation (e.g. rain,
    snow, etc.), thunder, or fog.

DCZ001-MDZ009-015-VAZ040>042-051-053>054-250400-
WASHINGTON METRO

CITY           SKY/WX    TMP DP  RH WIND       PRES   REMARKS
WASHINGTON NAT LGT RAIN  62  57  83 E13       29.71F
DULLES         RAIN      60  55  83 SE8       29.68S
ANDREWS AFB    DRIZZLE   59  54  82 E12G18    29.69F
FT BELVOIR     HVY RAIN  59  55  88 SE9       29.72R FOG
QUANTICO       RAIN      61  60  97 E9        29.70F
COLLEGE PARK*  CLOUDY    59  54  82 E6        29.71F
LEESBURG*      DRIZZLE   61  59  94 SE10G17   29.69F
MANASSAS*      LGT RAIN  59  57  93 SE10      29.70R
GAITHERSBURG*  CLOUDY    58  54  86 E10G21    29.70F

$$

MDZ006>007-011-014-250400-
BALTIMORE METRO

CITY           SKY/WX    TMP DP  RH WIND       PRES   REMARKS
BWI AIRPORT    CLOUDY    59  55  87 E17       29.72S
MD SCIENCE CTR   N/A     61  54  77 MISG      29.73F
MARTIN STATE   CLOUDY    61  55  82 E10G18    29.75F
ANNAPOLIS      CLOUDY    61  58  90 MISG      29.73R
FORT MEADE*    CLOUDY    59  54  82 E14       29.75S

$$

MDZ012-015-019>023-250400-
MARYLAND EASTERN SHORE

CITY           SKY/WX    TMP DP  RH WIND       PRES   REMARKS
OCEAN CITY     CLOUDY    56  54  93 E14       29.76F
SALISBURY      CLOUDY    56  55  97 E14       29.73F
BAY BRIDGE AP* CLOUDY    59  54  82 E14G20    29.73S
CAMBRIDGE*     CLOUDY    57  54  88 E12G21    29.73F
EASTON*        CLOUDY    59  54  83 SE14G22   29.77F

$$

MDZ017>025-250400-
SOUTHERN MARYLAND

CITY           SKY/WX    TMP DP  RH WIND       PRES   REMARKS
PATUXENT RIVER LGT RAIN  58  58 100 E16       29.71F
ST INIGOES     LGT RAIN  59  57  93 E12       29.71F
LEONARDTOWN*   CLOUDY    57  54  88 E7        29.73S

$$

MDZ003>005-250400-
NORTH CENTRAL MARYLAND

CITY           SKY/WX    TMP DP  RH WIND       PRES   REMARKS
FREDERICK*     CLOUDY    63  55  77 E12G17    29.72S
HAGERSTOWN APT LGT RAIN  62  54  74 E10       29.67F
WESTMINSTER*   CLOUDY    61  54  77 SE10G20   29.70F

$$

MDZ501>502-250400-
WESTERN MARYLAND

CITY           SKY/WX    TMP DP  RH WIND       PRES   REMARKS
OAKLAND*       FOG       50  50 100 SE23G30   29.63S VSB 3/4
CUMBERLAND*    CLOUDY    59  57  94 CALM      29.70F

$$

VAZ025>031-250400-
SHENANDOAH VALLEY

CITY           SKY/WX    TMP DP  RH WIND       PRES   REMARKS
WINCHESTER*    HVY RAIN  55  55 100 E5        29.67F
FRONT ROYAL*   CLOUDY    57  57 100 CALM      29.66S
LURAY*         RAIN      59  59 100 N5        29.64F
NEW MARKET*    CLOUDY    58  57  95 N5        29.63S
STAUNTON*      LGT RAIN  58  57  97 N5        29.63F
WAYNESBORO*    CLOUDY    58  58 100 NE9       29.62F

$$

WVZ021-048>050-054>055-250400-
EASTERN WEST VIRGINIA PANHANDLE

CITY           SKY/WX    TMP DP  RH WIND       PRES   REMARKS
MARTINSBURG    LGT RAIN  58  54  86 SE5       29.68R
PETERSBURG*    RAIN      59  58  97 CALM      29.63S

$$

VAZ036>039-050-250400-
CENTRAL FOOTHILLS

CITY           SKY/WX    TMP DP  RH WIND       PRES   REMARKS
CHARLOTTESVILL RAIN      61  59  93 E12       29.60F
CULPEPER*      LGT RAIN  60  59  97 E3        29.68F
ORANGE*        LGT RAIN  59  57  94 E6G17     29.64F
GORDONSVILLE*  CLOUDY    59  59  99 E6        29.65R
WARRENTON*     LGT RAIN  60  56  87 E5        29.68R

$$

VAZ055>057-250400-
NORTH AND CENTRAL PIEDMONT

CITY           SKY/WX    TMP DP  RH WIND       PRES   REMARKS
FREDERICKSBRG* LGT RAIN  60  60 100 E8        29.67F
STAFFORD*      RAIN      58  58 100 E10       29.72F

$$

NCZ024-NYZ072-PAZ021-071-VAZ022-071-250400-
OTHER REGIONAL OBSERVATIONS

CITY           SKY/WX    TMP DP  RH WIND       PRES   REMARKS
NEW YORK CITY  CLOUDY    60  50  69 VRB6      29.85R
PHILADELPHIA   CLOUDY    60  51  72 E12       29.79F
PITTSBURGH     CLOUDY    60  56  86 SE16G23   29.53F
ROANOKE        LGT RAIN  63  63 100 SE10      29.55F
RICHMOND       HVY RAIN  59  58  96 E12       29.65F FOG
RALEIGH        LGT RAIN  69  67  93 SE8       29.55F

$$

ANZ530>537-250400-
MARINE OBSERVATIONS

STATION/POSITION TIME  TEMP    WIND        PRES
                       AIR SEA DIR/SP/G
                 (UTC) (F)     (DEG/KT/KT) (MB)
THOMAS PT LIGHT  0300   59 64  110/ 16/ 18   N/A
BALT KEY BRIDGE  0236   60     100/ 20/ 23 1006.7S
COVE POINT       0236   58     130/ 16/ 19 1007.0F
LEWISETTA        0248   60 66  110/ 18/ 21 1005.7F
SOLOMONS ISLAND  0236   60 66  100/ 17/ 20   N/A
PINEY POINT      0248          140/ 18/ 21   N/A

$$




USA.gov is the U.S. government's official web portal to all federal, state and local government web resources and services.